Location: *
(57.8420°S, 159.8600°W)
Time: 03:44:06
(UTC+00:00)

S3M - Pass Details

Date: 18 May 2021
Orbit: 948 x 1005 km, 83.0° (Epoch: 20 June)

Event Time Altitude Azimuth Distance (km) Brightness Sun altitude
Rises 04:35:42 0° 193° (SSW) 3,737 7.1 -16.5°
Reaches altitude 10° 04:38:15 10° 191° (S) 2,791 6.4 -16.8°
Maximum altitude 04:44:42 74° 105° (ESE) 1,056 4.0 -17.7°
Drops below altitude 10° 04:51:08 10° 19° (NNE) 2,792 6.3 -18.5°
Sets 04:53:41 0° 17° (NNE) 3,737 7.0 -18.8°
